Starlink 11386

operational
NORAD ID: 62098 Int'l Des: 2024-220 Owner: SPXS Country: US Constellation: starlink
LEOCIRCULAR

Über Starlink 11386

Beschreibung wird geladen...

Live-Position

3D-Globus wird geladen...

Nächste Überflüge

Höhenverlauf

Altitude vs Time

uPlot chart will show altitude changes over time

Zweizeiliger Elementsatz

1 62098U 24220L 25304.71979544 .00268152 00000-0 20180-2 0 9992
2 62098 42.9997 100.0977 0001780 248.1098 111.9581 15.70941181 54674
Epoch: 31. Okt. 2025 • Age: 17 hours

Aktueller Status

Höhe 355.6 km
Geschwindigkeit 7.70 km/s
Subsatellitenpunkt 22.21°N, 72.3°W
Startdatum 25. Nov. 2024
Alter 0.9 years
Typ internet

Technische Details

Klassifizierung Payload
Masse 960.00 kg
Trockenmasse 910.00 kg
Gesamtmasse 960.00 kg
Länge 0.30 m
Durchmesser 4.10 m
Spannweite 29.00 m
Form Box + pan
Hersteller SPXS
Bus-Typ Starlink V2MD
Phasenstatus In Orbit
Besitzer/Staat SPXS/US

Große Konstellationen

Loading constellations...